Regional Weather Roundup
Issued by NWS

Home | Current Version | Previous Version | Graphics & Text | Print | Product List | Glossary On
Versions: 1 2 3 4 5 6 7 8 9 10 11 12 13 14 15 16 17 18 19 20 21 22 23 24 25 26 27 28 29 30 31 32 33 34 35 36 37 38 39 40 41 42 43 44 45 46 47 48 49 50
446
ASUS43 KLOT 300308
RWRIL

ILLINOIS REGIONAL WEATHER ROUNDUP
NATIONAL WEATHER SERVICE CHICAGO/ROMEOVILLE IL
1000 PM CDT SAT APR 29 2017

NOTE: "FAIR" INDICATES FEW OR NO CLOUDS BELOW 12,000 FEET WITH NO
SIGNIFICANT WEATHER AND/OR OBSTRUCTIONS TO VISIBILITY.

* THESE STATIONS ARE NOT UNDER NWS QUALITY CONTROL. THEY ALSO MAY NOT
  REPORT WEATHER SUCH AS PRECIPITATION OR FOG.

ILZ001-002-007-009-015-016-024-300400-
NORTHWEST ILLINOIS

CITY           SKY/WX    TMP DP  RH WIND       PRES   REMARKS
MOLINE         LGT RAIN  42  38  85 NE17      29.98S FOG
STERLING*      LGT RAIN  41  39  93 E21G26    30.01R FOG
SAVANNA*       CLOUDY    41  37  85 NE15G25   30.01F
$$

ILZ003-004-008-010-011-017-018-300400-
NORTH CENTRAL ILLINOIS

CITY           SKY/WX    TMP DP  RH WIND       PRES   REMARKS
ROCKFORD       CLOUDY    43  38  82 NE18      30.02R
FREEPORT*      CLOUDY    39  37  91 NE20G26   30.03F WCI  29
ROCHELLE*      CLOUDY    41  40  93 NE17G25   30.02R
DE KALB*       CLOUDY    43  41  93 NE22G35   29.98R
PERU*          RAIN      43  42  96 E18G25    29.97R
$$

ILZ005-006-012>014-019>023-300400-
NORTHEAST ILLINOIS

CITY           SKY/WX    TMP DP  RH WIND       PRES   REMARKS
CHICAGO-OHARE  HVY RAIN  44  42  93 NE24G35   29.98F FOG
CHICAGO-MIDWAY LGT RAIN  46  44  93 NE29G38   30.00R FOG
AURORA         RAIN      46  43  89 E18G39    29.98R FOG
LANSING*       LGT RAIN  46  46 100 E6G23     30.00R
JOLIET*        LGT RAIN  46  46  97 NE18G25   29.99R
WAUKEGAN       LGT RAIN  42  42 100 NE18G36   29.99F
DUPAGE AIRPORT HVY RAIN  44  44 100 E29G43    29.96R FOG
WHEELING       RAIN      43  43 100 NE21G36   30.00F FOG
MORRIS*        LGT RAIN  45  44  94 E16G24    29.96F
ROMEOVILLE*    RAIN      45  45 100 NE15G24   30.00R
NORTHERLY ISL    N/A     44  43  96 W25         N/A
$$

LMZ740>746-300400-
SOUTHERN LAKE MICHIGAN

STATION/POSITION SKY/WX   TEMP    WIND        PRES    VSBY  WAVE
                          AIR SEA DIR/SP/G                  HT/PER
                          (F)     (DEG/KT/KT) (MB)    (MI)  (FT/S)
SOUTHERN BUOY              42 41   40/ 17/ 21 1020.5          5/ 7
HARRISON CRIB              44      40/ 37/ 40   N/A
BURNHAM HARBOR             44      10/ 12/ 33   N/A
CALUMET HARBOR             45      20/ 17/ 26 1014.2S
BURNS HARBOR               48      70/ 26/ 34 1013.2F
MICHIGAN CITY              47      60/ 30/ 36   N/A
MICHIGAN CITY 6N           47 47                N/A           9/ 7
ST. JOSEPH                 47 48  100/ 23/ 31 1015.1          6/ 6
$$

ILZ025>027-034>036-040-047-049-050-058-095>099-300400-
WEST-CENTRAL ILLINOIS

CITY           SKY/WX    TMP DP  RH WIND       PRES   REMARKS
QUINCY         LGT RAIN  44  44 100 NE10      29.89S
GALESBURG*     CLOUDY    41  41  99 NE14      29.96R
MACOMB*        CLOUDY    43  42  99 NE13      29.96F FOG
JACKSONVILLE*  RAIN      44  43  97 N12       29.90F
PITTSFIELD*    LGT RAIN  45  44  98 NE6       29.90F
$$

ILZ028>032-037-038-041>044-048-051>054-059>061-300400-
CENTRAL ILLINOIS

CITY           SKY/WX    TMP DP  RH WIND       PRES   REMARKS
PONTIAC        DRIZZLE   46  46  98 NE26      29.92R
DECATUR        LGT RAIN  52  52 100 S8        29.88R
PEORIA         CLOUDY    45  43  93 E17G25    29.94S
LACON*         CLOUDY    44  43  94 NE12G21   29.95R
LINCOLN*       RAIN      47  47  99 N7        29.94R
SPRINGFIELD    RAIN      47  46  97 N13       29.92R FOG
TAYLORVILLE    LGT RAIN  47  47  97 E3        29.88F
$$

ILZ033-039-045-046-055>057-062-063-300400-
EAST-CENTRAL ILLINOIS

CITY           SKY/WX    TMP DP  RH WIND       PRES   REMARKS
CHAMPAIGN      LGT RAIN  60  57  89 S13       29.90R
RANTOUL*       LGT RAIN  61  61  99 S12       29.89S
MATTOON        LGT RAIN  62  62 100 CALM      29.90R
PARIS*         RAIN     N/A N/A N/A SE3       29.93S
$$

ILZ079-100>102-300400-
SOUTHWEST ILLINOIS

CITY           SKY/WX    TMP DP  RH WIND       PRES   REMARKS
ALTON          CLOUDY    50  50 100 W5        29.89F
BELLEVILLE     LGT RAIN  58  58 100 N6        29.88R
CAHOKIA*       RAIN      56  54  93 NE6       29.88F
$$

ILZ064>066-069>071-074>076-080>082-084>086-088>090-092>094-300400-
SOUTH-CENTRAL ILLINOIS

CITY           SKY/WX    TMP DP  RH WIND       PRES   REMARKS
CARBONDALE     RAIN      63  63 100 NE6       29.90R FOG
CAIRO*         LGT RAIN  67  62  84 NW5       29.92R
EFFINGHAM*     LGT RAIN  63  63 100 E6        29.92S
MARION         RAIN      64  64 100 E3        29.92R
MT. VERNON     LGT RAIN  63  63 100 S5        29.91R
CENTRALIA*     LGT RAIN  64  64  99 CALM      29.90R
SALEM*         RAIN      64  63  94 CALM      29.90R
METROPOLIS*    CLOUDY    69  62  78 NE7       29.90F
$$

ILZ067-068-072-073-078-083-087-091-300400-
SOUTHEAST ILLINOIS

CITY           SKY/WX    TMP DP  RH WIND       PRES   REMARKS
LAWRENCEVILLE  HVY RAIN  65  64  97 CALM      29.94R FOG
FLORA*         LGT RAIN  65  64  96 SE6       29.92S
FAIRFIELD*     LGT RAIN  64  64 100 CALM      29.91R
HARRISBURG*    LGT RAIN  64  64  99 E9        29.92S
ROBINSON*      RAIN      64  62  96 SW7       29.93R
CARMI*         RAIN      64  63  96 CALM      29.93S
$$

ABBREVIATIONS USED IN REMARKS
   TC - TEMPERATURE IN CELSIUS
  WCI - WIND CHILL INDEX
   HX - HEAT INDEX
  VSB - VISIBILITY
$$





USA.gov is the U.S. government's official web portal to all federal, state and local government web resources and services.